COSMOS 1691 DEB, 43315

Orbit data source: Space-Track

COSMOS 1691 DEB, 43315 is space debris in LEO originally from a launch on Wed, 09 Oct 1985 UTC launched from the Plesetsk Missile And Space Complex (PKMTR). Debris objects in space refer to the collection of defunct objects orbiting the Earth. Examples of debris include non-operational satellites, rocket bodies, and fragments generated from explosions, collisions, or faulty payload assembly.

Loading next visibility...
Identifier
43315, 1985-094Z
Orbit
LEO
Country
Flag of CISCIS
Related business
Manufacturer
Unknown
Mission
Spacecraft
Bus & Motor
Unknown
Mass
Unknown
Launch date (UTC)
1985-10-09 (41 years ago)
Launch vehicle
Unknown
Launch site
Plesetsk Missile And Space Complex (PKMTR)
Object type
Payload
Rocket body
Debris
Shape & HBR
Unknown shape, 0.1 m
Radar Cross Section
Small (<0.1 m²)

Expand to show TLE details & history
Last TLE update: 2 days ago

TLE from 2 days ago
0 COSMOS 1691 DEB
1 43315U 85094Z   26125.43555122  .00000403  00000-0  19919-2 0  9993
2 43315  82.5659 183.1054 0025360  81.1907 279.2058 12.69251471576422
Epoch: 2026-05-05T10:27Z
TLE epoch observation values (Epoch: 2026-05-05T10:27:11.625Z)
Latitude
-0.00005°
Longitude
162.99652°
Altitude
1,384.629 km
Speed
7.169 km/s
True Right ascension
12h 12m 25s
True Declination
0° 00' 00"
Sunlit
Object was in full shadow at epoch
Visualization orbit readout
Latitude
Unknown
Longitude
Unknown
Altitude
Unknown
Speed
Unknown
Apparent Right ascension
Unknown
Apparent Declination
Unknown
Sunlit
N/A
Visualization observer readout
Local Sidereal Time
20:45:12
Azimuth
Unknown
Elevation
Unknown
Doppler factor
Unknown
Orbital elements
Apogee altitude
1,401.982 km
Perigee altitude
1,362.621 km
Semi-major axis
7,760.439 km
Eccentricity
0.00254
Inclination
82.5659°
RAAN
183.1054°
Arg. of periapsis
81.1907°
True anomaly
278.91879°
Mean anomaly
279.2058°
Eccentric anomaly
279.06231°
Mean motion
3.17478 °/min
Orbital period
113.39 mins
BSTAR
0.0019919
Loading maneuver chart data...
Computing Atmospheric mass density...
Loading historical data...
Loading historical data...
Loading historical data...
Loading historical data...
Loading historical data...
Loading historical data...
Loading historical data...

Documentation

Showing up to 5 results
|